SCP
0 0 0 0 0 0 0 0 0 0 0 0 0 0 0 0 0 0 0 0 0 0 0 0 0 0 0 0 0 0 0 0 0 0 0 0 0 0 0 0 0 0 0
1 0 0 0 0 0 0 0 0 0 0 0 0 0 0 0 0 0 0 0 0 0 0 0 0 0 0 0 0 0 0 0 0 0 0 0 0 0 0 0 0 0 0
1 0 0 0 0 0 0 0 0 0 0 0 0 0 0 0 0 0 0 1 0 0 0 0 0 0 0 0 0 0 0 0 0 0 0 0 0 0 0 0 0 0 0
1 0 1 0 0 0 0 0 0 0 0 0 0 0 0 0 0 0 0 0 0 0 0 0 0 0 0 0 0 0 0 0 0 0 0 0 0 0 0 0 0 0 0
1 1 1 0 1 0 0 0 0 0 0 0 0 0 0 0 0 0 0 0 0 0 0 0 0 0 0 0 0 0 0 0 0 0 0 0 0 0 0 0 0 0 0
1 1 1 1 1 0 0 0 0 0 0 0 0 0 1 1 1 1 1 0 0 0 0 0 0 0 0 0 0 0 0 0 0 0 0 0 0 0 0 0 0 0 0
1 1 1 1 1 1 1 1 1 1 1 0 0 1 0 0 1 0 0 0 0 0 0 0 0 0 0 0 0 0 0 0 0 0 0 0 0 0 0 0 0 0 0
2 1 1 1 1 1 1 1 1 1 1 0 0 1 1 0 0 0 0 0 0 0 0 0 0 0 0 0 0 0 0 0 0 0 0 0 0 0 0 0 0 0 0
2 2 1 1 1 1 1 1 1 1 1 1 1 1 1 0 0 0 0 0 0 0 0 0 0 0 0 0 0 0 0 0 0 0 0 0 0 0 0 0 0 0 0
2 2 2 1 1 1 1 1 1 1 2 1 1 1 1 1 1 0 0 0 0 0 0 0 0 0 0 0 0 0 0 0 0 0 0 0 0 0 0 0 0 0 0
2 2 2 1 1 1 1 1 1 1 1 2 1 1 1 1 1 0 0 0 0 0 0 0 0 0 0 0 0 0 0 0 0 0 0 0 0 0 0 0 0 0 0
1 1 3 3 2 1 0 1 1 1 1 2 2 2 1 1 0 0 0 0 0 0 0 0 0 0 0 0 0 0 0 0 0 0 0 0 0 0 0 0 0 0 0
1 1 1 2 3 2 1 0 1 1 0 1 1 2 1 1 0 0 0 0 0 0 0 0 0 0 0 0 0 0 0 0 0 0 0 0 0 0 0 0 0 0 0
2 2 2 2 2 1 1 1 1 1 1 0 0 0 0 0 0 0 0 0 0 0 0 0 0 0 0 0 0 0 0 0 0 0 0 0 0 0 0 0 0 0 0
2 2 2 2 2 1 0 1 1 1 0 0 0 0 0 0 0 0 0 0 0 0 0 0 0 0 0 0 0 0 0 0 0 0 0 0 0 0 0 0 0 0 0
1 2 3 4 3 1 1 2 0 0 0 0 0 0 0 0 0 0 0 0 0 0 0 0 0 0 0 0 0 0 0 0 0 0 0 0 0 0 0 0 0 0 0
2 2 2 3 3 2 1 1 0 0 0 0 0 0 0 0 0 0 0 0 0 0 0 0 0 0 0 0 0 0 0 0 0 0 0 0 0 0 0 0 0 0 -0
1 1 1 3 2 2 2 1 0 0 0 0 0 0 0 0 0 0 0 0 0 0 0 -0 0 0 0 0 0 0 0 0 0 0 0 0 0 0 0 0 0 0 -0
2 2 2 2 1 1 1 1 0 0 0 0 0 0 0 0 0 0 0 0 0 0 0 0 0 0 0 0 0 0 0 0 0 0 0 0 0 0 0 0 0 0 -0
1 2 1 1 1 1 1 0 0 0 0 0 0 0 0 0 0 0 0 0 0 -0 -0 0 0 0 0 0 0 0 0 0 0 0 0 0 0 0 0 0 0 0 0
0 0 0 1 1 0 0 0 0 0 0 0 0 0 0 0 0 0 0 -0 -0 -0 0 0 0 0 0 0 0 0 0 0 0 0 0 0 0 0 0 0 0 0 -0
0 0 1 0 0 0 0 0 0 0 0 0 0 0 0 0 0 -0 -0 -0 0 -0 0 0 -0 -0 0 0 0 0 0 0 0 0 0 0 0 0 0 0 0 -0 -0
0 0 0 0 0 0 0 0 0 0 0 0 0 0 0 0 -0 -0 -0 -0 -0 -0 0 -0 -0 -0 0 0 0 0 0 0 0 0 0 0 0 0 0 0 -0 -0 -0
0 0 0 0 0 0 0 0 0 0 0 0 0 0 -0 -0 -0 0 -0 -0 0 0 -0 -0 -0 -0 0 -0 -0 0 -0 0 0 0 0 0 0 0 0 0 0 -0 -0
0 0 0 0 0 0 0 0 0 0 0 0 0 0 0 -0 -0 -0 -0 -0 0 0 -0 -0 -0 -0 0 -0 -0 -0 -0 0 0 0 0 0 0 -0 0 0 0 -0 -0
0 0 0 0 0 0 0 0 0 0 0 0 0 0 0 -0 0 -0 -0 0 -0 -0 -0 -0 -0 -0 -0 -0 -0 -0 -0 0 0 0 0 0 0 -0 0 -0 -0 -0 -0
Wind_Speed_500mb
56 54 53 52 51 50 47 45 41 36 31 28 25 23 24 20 15 14 14 14 12 11 13 11 12 12 14 14 11 28 44 43 52 60 62 58 53 48 45 46 43 41 40
61 58 55 52 50 48 48 46 43 37 34 31 27 26 27 25 20 16 15 18 13 13 12 12 12 10 14 14 17 33 43 46 57 65 69 62 48 46 46 45 43 41 39
60 62 56 53 48 45 47 46 44 41 38 34 30 28 28 26 24 18 19 21 18 15 15 15 12 11 12 14 22 38 44 52 62 69 65 54 48 46 46 45 43 41 36
56 57 56 54 49 48 47 47 45 43 40 37 33 29 26 25 25 25 23 23 21 18 17 15 13 14 11 12 22 36 42 51 60 60 50 58 49 48 47 48 44 40 40
50 49 53 56 53 51 49 46 46 44 42 41 37 33 28 26 26 27 24 24 21 19 20 16 16 16 17 23 29 31 40 48 51 50 49 50 47 47 50 48 40 39 41
44 46 50 53 54 54 51 49 45 45 42 35 36 33 31 26 28 25 25 26 24 22 22 18 17 21 24 26 25 32 41 49 48 49 54 49 47 48 48 45 41 42 41
47 45 46 44 52 56 57 49 47 46 43 40 36 33 29 27 28 26 28 30 26 23 23 22 25 27 25 26 27 34 40 48 48 54 50 46 48 47 46 44 42 44 42
57 52 46 45 48 52 54 54 54 47 43 45 32 26 17 17 26 27 30 30 26 24 23 28 27 27 25 21 27 35 43 51 53 50 48 46 45 44 44 43 42 42 41
59 50 47 48 46 45 51 50 56 60 43 51 46 29 19 23 28 26 25 26 22 23 25 26 28 28 20 20 26 34 43 50 49 47 44 42 44 44 43 42 42 42 45
62 58 54 50 43 42 49 51 49 61 61 53 50 51 37 22 21 16 25 27 28 27 26 28 28 24 18 23 28 34 42 48 45 42 41 40 42 43 45 44 45 43 42
69 65 62 55 49 44 41 52 53 53 67 63 66 51 54 45 35 22 22 30 27 28 29 29 26 21 21 22 25 34 41 42 37 37 40 39 36 39 43 44 45 45 40
81 74 64 61 59 54 46 48 53 56 67 73 72 60 53 52 49 43 20 28 32 31 33 31 24 20 19 20 25 34 36 34 30 37 43 48 44 41 38 43 45 46 42
75 83 69 66 66 52 47 47 56 59 65 70 72 74 62 60 60 53 39 35 33 34 29 30 25 20 18 17 23 28 30 24 29 35 41 54 57 44 39 44 46 50 46
68 69 66 50 43 42 45 49 56 59 59 43 64 61 60 67 63 53 51 39 22 23 27 26 26 21 15 16 21 23 22 19 26 30 38 46 57 50 43 44 45 44 46
67 59 54 50 41 43 44 50 55 51 50 56 64 75 65 49 57 42 44 36 35 26 20 28 24 20 13 13 16 14 15 21 25 29 37 45 55 51 41 46 49 47 48
60 53 58 57 46 44 47 53 51 45 51 44 53 71 62 58 50 33 29 30 20 24 19 26 26 20 10 8 10 11 12 21 24 34 39 43 56 44 43 48 50 49 50
49 56 56 46 46 48 52 55 53 55 57 47 63 80 83 72 50 43 34 20 22 22 21 18 22 17 7 2 5 9 14 16 18 27 36 41 51 44 44 50 53 51 48
55 58 50 49 49 47 55 59 63 73 72 65 78 84 66 60 49 39 29 25 16 22 21 19 25 19 10 8 10 13 14 13 17 24 33 40 41 42 44 49 50 50 49
44 48 41 42 46 49 56 63 72 78 69 67 76 70 67 59 55 47 35 25 14 24 24 21 26 21 17 16 16 13 13 16 15 21 33 43 38 38 40 47 49 51 50
39 30 30 39 40 51 58 61 69 74 73 69 66 62 59 63 57 46 44 31 25 36 30 27 29 28 23 22 19 11 12 12 13 19 29 37 42 40 42 46 49 52 51
48 42 59 56 41 48 61 60 65 58 60 77 70 68 59 60 59 44 45 29 41 38 33 34 34 32 26 18 13 13 7 9 16 17 21 30 34 36 43 50 47 51 50
45 54 48 36 42 50 59 51 54 73 71 79 79 74 65 55 46 44 38 40 35 28 35 37 36 34 34 24 18 15 12 14 13 14 22 29 31 39 42 51 45 48 51
36 32 25 28 43 45 42 56 65 74 79 86 90 77 70 62 58 58 53 46 40 34 30 33 46 38 37 29 21 23 24 24 21 21 19 28 32 35 34 46 45 45 49
37 37 26 35 39 29 32 50 63 82 74 73 68 66 70 74 67 61 61 57 54 48 45 48 46 45 36 31 31 34 32 29 27 30 29 24 26 36 37 32 44 44 43
39 40 33 28 26 28 34 64 75 81 71 77 74 71 74 76 62 55 58 63 62 60 52 51 50 46 44 43 39 23 25 22 29 36 41 32 17 26 37 37 38 40 42
35 33 26 21 25 31 52 59 84 71 80 82 80 75 68 62 56 49 53 61 67 69 66 59 54 54 54 54 48 41 28 24 28 34 40 39 40 20 32 41 46 40 37
Wind_Direction_500mb
238 236 236 235 234 232 232 232 232 236 242 242 238 234 232 231 243 248 244 247 257 278 285 287 304 327 337 349 314 333 349 348 352 353 352 356 354 353 350 345 337 333 328
247 239 238 239 239 236 235 235 235 237 242 243 242 239 241 235 242 244 248 248 243 243 265 278 283 319 336 320 300 330 338 342 347 347 357 357 353 351 348 339 340 337 333
243 245 239 243 241 239 238 237 238 240 242 244 243 246 243 236 239 242 246 248 235 232 253 263 279 313 322 299 299 323 334 340 345 348 353 351 350 348 341 343 340 335 339
244 246 243 241 241 239 237 238 239 241 240 243 242 238 233 237 242 241 244 233 229 236 244 250 275 299 307 260 295 322 336 338 344 347 347 344 346 345 344 343 343 337 331
248 243 246 245 240 238 239 239 240 241 242 239 238 237 237 243 239 236 236 225 231 231 233 236 254 282 263 272 298 320 334 336 344 344 342 343 346 343 344 343 347 341 326
251 246 246 246 245 241 239 238 238 240 237 236 232 231 232 235 231 230 225 220 229 233 243 233 253 257 266 284 297 325 330 339 343 340 339 342 343 345 343 343 346 344 337
251 251 248 241 248 247 244 240 238 239 234 237 222 218 228 229 224 221 218 222 232 240 244 238 235 263 271 286 308 324 333 341 340 338 339 345 343 346 345 342 341 339 335
249 250 250 249 250 244 243 238 235 234 227 225 207 202 208 214 220 219 221 230 224 233 239 238 252 255 268 282 313 326 333 338 338 339 342 345 348 347 346 345 345 345 342
249 246 249 248 255 248 239 242 233 229 221 222 212 206 200 215 190 216 218 226 231 239 235 236 242 249 259 299 320 332 336 338 340 342 352 1 0 357 353 353 353 351 349
246 242 243 248 249 253 245 243 244 232 223 223 218 218 215 204 189 179 201 212 210 213 220 229 232 242 265 303 319 327 336 338 345 351 9 13 9 8 7 5 1 358 354
241 239 245 245 252 251 254 250 248 246 234 227 226 219 218 221 223 198 191 199 200 205 213 221 224 241 279 303 319 331 338 343 356 4 6 6 8 4 2 360 358 356 355
244 238 247 242 248 250 253 255 253 248 244 234 232 223 220 213 216 221 189 180 199 191 202 214 227 255 282 306 319 334 343 355 9 15 18 15 6 358 356 359 357 350 353
249 247 245 241 241 248 257 259 258 251 243 245 237 237 231 225 234 227 217 188 189 203 205 223 236 252 278 308 323 342 351 7 18 28 20 20 13 10 7 2 356 357 355
243 247 253 246 239 245 257 261 255 249 247 245 235 227 224 226 230 246 239 238 195 198 211 222 234 245 271 303 326 346 353 17 24 20 12 12 11 11 16 9 3 359 354
239 238 237 231 244 257 258 257 248 242 236 246 227 216 218 232 238 237 253 258 251 204 206 221 225 241 261 303 335 352 7 26 29 13 11 9 5 5 11 12 10 7 6
237 230 223 229 242 254 255 250 238 236 232 230 218 206 206 221 229 221 246 247 244 243 211 215 217 232 249 318 355 5 40 47 29 20 20 10 4 14 21 21 16 12 12
222 216 220 232 247 246 251 241 230 221 224 221 208 203 193 214 214 208 214 213 236 232 227 198 210 206 208 75 31 70 56 54 23 20 15 10 12 23 22 22 18 16 15
211 216 225 231 237 242 247 237 222 216 224 222 199 197 200 202 195 190 179 195 234 226 241 201 188 183 156 116 101 83 67 49 43 20 15 10 15 24 23 19 21 18 17
220 222 229 235 241 246 242 233 221 226 221 212 205 202 192 187 178 176 184 199 214 219 221 203 171 154 137 123 101 82 72 66 47 26 18 9 25 26 25 24 24 24 23
225 223 234 243 248 246 242 239 223 224 216 198 193 194 200 204 199 194 178 204 201 206 186 168 148 141 130 116 108 103 67 65 51 34 16 23 28 27 33 30 28 26 24
226 227 260 259 243 242 238 233 228 221 201 198 197 187 188 182 171 176 181 193 194 184 171 152 139 130 125 111 117 104 83 78 49 37 34 26 23 28 32 31 30 27 29
230 226 238 234 235 236 239 232 223 190 189 191 183 172 164 165 168 159 159 174 169 180 162 148 136 136 122 114 104 92 79 85 49 20 46 26 27 30 30 28 28 27 29
226 229 227 236 239 233 231 222 209 201 194 181 167 165 161 162 157 152 156 153 147 145 145 139 131 126 116 112 109 97 88 76 62 35 62 36 33 29 29 26 27 32 34
215 211 219 235 239 229 228 223 206 192 177 172 172 165 159 150 153 161 158 150 142 135 133 128 124 117 110 107 107 102 95 75 58 46 58 40 41 31 26 32 28 33 35
203 211 208 232 225 220 217 204 180 166 173 168 162 161 157 151 155 163 159 152 142 132 127 124 119 109 103 106 103 94 90 88 68 51 52 43 33 45 36 32 33 34 36
204 193 194 201 208 217 212 204 174 175 169 159 153 150 155 147 153 159 162 154 142 135 133 128 116 110 104 97 91 94 87 86 75 60 59 53 49 62 41 39 37 42 44
Wind_Speed_850mb
56 54 53 52 51 50 47 45 41 36 31 28 25 23 24 20 15 14 14 14 12 11 13 11 12 12 14 14 11 28 44 43 52 60 62 58 53 48 45 46 43 41 40
61 58 55 52 50 48 48 46 43 37 34 31 27 26 27 25 20 16 15 18 13 13 12 12 12 10 14 14 17 33 43 46 57 65 69 62 48 46 46 45 43 41 39
60 62 56 53 48 45 47 46 44 41 38 34 30 28 28 26 24 18 19 21 18 15 15 15 12 11 12 14 22 38 44 52 62 69 65 54 48 46 46 45 43 41 36
56 57 56 54 49 48 47 47 45 43 40 37 33 29 26 25 25 25 23 23 21 18 17 15 13 14 11 12 22 36 42 51 60 60 50 58 49 48 47 48 44 40 40
50 49 53 56 53 51 49 46 46 44 42 41 37 33 28 26 26 27 24 24 21 19 20 16 16 16 17 23 29 31 40 48 51 50 49 50 47 47 50 48 40 39 41
44 46 50 53 54 54 51 49 45 45 42 35 36 33 31 26 28 25 25 26 24 22 22 18 17 21 24 26 25 32 41 49 48 49 54 49 47 48 48 45 41 42 41
47 45 46 44 52 56 57 49 47 46 43 40 36 33 29 27 28 26 28 30 26 23 23 22 25 27 25 26 27 34 40 48 48 54 50 46 48 47 46 44 42 44 42
57 52 46 45 48 52 54 54 54 47 43 45 32 26 17 17 26 27 30 30 26 24 23 28 27 27 25 21 27 35 43 51 53 50 48 46 45 44 44 43 42 42 41
59 50 47 48 46 45 51 50 56 60 43 51 46 29 19 23 28 26 25 26 22 23 25 26 28 28 20 20 26 34 43 50 49 47 44 42 44 44 43 42 42 42 45
62 58 54 50 43 42 49 51 49 61 61 53 50 51 37 22 21 16 25 27 28 27 26 28 28 24 18 23 28 34 42 48 45 42 41 40 42 43 45 44 45 43 42
69 65 62 55 49 44 41 52 53 53 67 63 66 51 54 45 35 22 22 30 27 28 29 29 26 21 21 22 25 34 41 42 37 37 40 39 36 39 43 44 45 45 40
81 74 64 61 59 54 46 48 53 56 67 73 72 60 53 52 49 43 20 28 32 31 33 31 24 20 19 20 25 34 36 34 30 37 43 48 44 41 38 43 45 46 42
75 83 69 66 66 52 47 47 56 59 65 70 72 74 62 60 60 53 39 35 33 34 29 30 25 20 18 17 23 28 30 24 29 35 41 54 57 44 39 44 46 50 46
68 69 66 50 43 42 45 49 56 59 59 43 64 61 60 67 63 53 51 39 22 23 27 26 26 21 15 16 21 23 22 19 26 30 38 46 57 50 43 44 45 44 46
67 59 54 50 41 43 44 50 55 51 50 56 64 75 65 49 57 42 44 36 35 26 20 28 24 20 13 13 16 14 15 21 25 29 37 45 55 51 41 46 49 47 48
60 53 58 57 46 44 47 53 51 45 51 44 53 71 62 58 50 33 29 30 20 24 19 26 26 20 10 8 10 11 12 21 24 34 39 43 56 44 43 48 50 49 50
49 56 56 46 46 48 52 55 53 55 57 47 63 80 83 72 50 43 34 20 22 22 21 18 22 17 7 2 5 9 14 16 18 27 36 41 51 44 44 50 53 51 48
55 58 50 49 49 47 55 59 63 73 72 65 78 84 66 60 49 39 29 25 16 22 21 19 25 19 10 8 10 13 14 13 17 24 33 40 41 42 44 49 50 50 49
44 48 41 42 46 49 56 63 72 78 69 67 76 70 67 59 55 47 35 25 14 24 24 21 26 21 17 16 16 13 13 16 15 21 33 43 38 38 40 47 49 51 50
39 30 30 39 40 51 58 61 69 74 73 69 66 62 59 63 57 46 44 31 25 36 30 27 29 28 23 22 19 11 12 12 13 19 29 37 42 40 42 46 49 52 51
48 42 59 56 41 48 61 60 65 58 60 77 70 68 59 60 59 44 45 29 41 38 33 34 34 32 26 18 13 13 7 9 16 17 21 30 34 36 43 50 47 51 50
45 54 48 36 42 50 59 51 54 73 71 79 79 74 65 55 46 44 38 40 35 28 35 37 36 34 34 24 18 15 12 14 13 14 22 29 31 39 42 51 45 48 51
36 32 25 28 43 45 42 56 65 74 79 86 90 77 70 62 58 58 53 46 40 34 30 33 46 38 37 29 21 23 24 24 21 21 19 28 32 35 34 46 45 45 49
37 37 26 35 39 29 32 50 63 82 74 73 68 66 70 74 67 61 61 57 54 48 45 48 46 45 36 31 31 34 32 29 27 30 29 24 26 36 37 32 44 44 43
39 40 33 28 26 28 34 64 75 81 71 77 74 71 74 76 62 55 58 63 62 60 52 51 50 46 44 43 39 23 25 22 29 36 41 32 17 26 37 37 38 40 42
35 33 26 21 25 31 52 59 84 71 80 82 80 75 68 62 56 49 53 61 67 69 66 59 54 54 54 54 48 41 28 24 28 34 40 39 40 20 32 41 46 40 37
Wind_Direction_850mb
238 236 236 235 234 232 232 232 232 236 242 242 238 234 232 231 243 248 244 247 257 278 285 287 304 327 337 349 314 333 349 348 352 353 352 356 354 353 350 345 337 333 328
247 239 238 239 239 236 235 235 235 237 242 243 242 239 241 235 242 244 248 248 243 243 265 278 283 319 336 320 300 330 338 342 347 347 357 357 353 351 348 339 340 337 333
243 245 239 243 241 239 238 237 238 240 242 244 243 246 243 236 239 242 246 248 235 232 253 263 279 313 322 299 299 323 334 340 345 348 353 351 350 348 341 343 340 335 339
244 246 243 241 241 239 237 238 239 241 240 243 242 238 233 237 242 241 244 233 229 236 244 250 275 299 307 260 295 322 336 338 344 347 347 344 346 345 344 343 343 337 331
248 243 246 245 240 238 239 239 240 241 242 239 238 237 237 243 239 236 236 225 231 231 233 236 254 282 263 272 298 320 334 336 344 344 342 343 346 343 344 343 347 341 326
251 246 246 246 245 241 239 238 238 240 237 236 232 231 232 235 231 230 225 220 229 233 243 233 253 257 266 284 297 325 330 339 343 340 339 342 343 345 343 343 346 344 337
251 251 248 241 248 247 244 240 238 239 234 237 222 218 228 229 224 221 218 222 232 240 244 238 235 263 271 286 308 324 333 341 340 338 339 345 343 346 345 342 341 339 335
249 250 250 249 250 244 243 238 235 234 227 225 207 202 208 214 220 219 221 230 224 233 239 238 252 255 268 282 313 326 333 338 338 339 342 345 348 347 346 345 345 345 342
249 246 249 248 255 248 239 242 233 229 221 222 212 206 200 215 190 216 218 226 231 239 235 236 242 249 259 299 320 332 336 338 340 342 352 1 0 357 353 353 353 351 349
246 242 243 248 249 253 245 243 244 232 223 223 218 218 215 204 189 179 201 212 210 213 220 229 232 242 265 303 319 327 336 338 345 351 9 13 9 8 7 5 1 358 354
241 239 245 245 252 251 254 250 248 246 234 227 226 219 218 221 223 198 191 199 200 205 213 221 224 241 279 303 319 331 338 343 356 4 6 6 8 4 2 360 358 356 355
244 238 247 242 248 250 253 255 253 248 244 234 232 223 220 213 216 221 189 180 199 191 202 214 227 255 282 306 319 334 343 355 9 15 18 15 6 358 356 359 357 350 353
249 247 245 241 241 248 257 259 258 251 243 245 237 237 231 225 234 227 217 188 189 203 205 223 236 252 278 308 323 342 351 7 18 28 20 20 13 10 7 2 356 357 355
243 247 253 246 239 245 257 261 255 249 247 245 235 227 224 226 230 246 239 238 195 198 211 222 234 245 271 303 326 346 353 17 24 20 12 12 11 11 16 9 3 359 354
239 238 237 231 244 257 258 257 248 242 236 246 227 216 218 232 238 237 253 258 251 204 206 221 225 241 261 303 335 352 7 26 29 13 11 9 5 5 11 12 10 7 6
237 230 223 229 242 254 255 250 238 236 232 230 218 206 206 221 229 221 246 247 244 243 211 215 217 232 249 318 355 5 40 47 29 20 20 10 4 14 21 21 16 12 12
222 216 220 232 247 246 251 241 230 221 224 221 208 203 193 214 214 208 214 213 236 232 227 198 210 206 208 75 31 70 56 54 23 20 15 10 12 23 22 22 18 16 15
211 216 225 231 237 242 247 237 222 216 224 222 199 197 200 202 195 190 179 195 234 226 241 201 188 183 156 116 101 83 67 49 43 20 15 10 15 24 23 19 21 18 17
220 222 229 235 241 246 242 233 221 226 221 212 205 202 192 187 178 176 184 199 214 219 221 203 171 154 137 123 101 82 72 66 47 26 18 9 25 26 25 24 24 24 23
225 223 234 243 248 246 242 239 223 224 216 198 193 194 200 204 199 194 178 204 201 206 186 168 148 141 130 116 108 103 67 65 51 34 16 23 28 27 33 30 28 26 24
226 227 260 259 243 242 238 233 228 221 201 198 197 187 188 182 171 176 181 193 194 184 171 152 139 130 125 111 117 104 83 78 49 37 34 26 23 28 32 31 30 27 29
230 226 238 234 235 236 239 232 223 190 189 191 183 172 164 165 168 159 159 174 169 180 162 148 136 136 122 114 104 92 79 85 49 20 46 26 27 30 30 28 28 27 29
226 229 227 236 239 233 231 222 209 201 194 181 167 165 161 162 157 152 156 153 147 145 145 139 131 126 116 112 109 97 88 76 62 35 62 36 33 29 29 26 27 32 34
215 211 219 235 239 229 228 223 206 192 177 172 172 165 159 150 153 161 158 150 142 135 133 128 124 117 110 107 107 102 95 75 58 46 58 40 41 31 26 32 28 33 35
203 211 208 232 225 220 217 204 180 166 173 168 162 161 157 151 155 163 159 152 142 132 127 124 119 109 103 106 103 94 90 88 68 51 52 43 33 45 36 32 33 34 36
204 193 194 201 208 217 212 204 174 175 169 159 153 150 155 147 153 159 162 154 142 135 133 128 116 110 104 97 91 94 87 86 75 60 59 53 49 62 41 39 37 42 44